SR9NSK-1 Weather Reports


Display with metric or nautical units.
time (UTC)temp
F
wind
direction
speed
MPH
gust
MPH
rain 1hr
in
rain 24hr
in
rain mn
in
humidity
%
barometer
mb
20260507105445 49 255 4.0 6.0 0.00 0.00 0.00 77 872.5
20260507105245 49 260 4.0 6.0 0.00 0.00 0.00 77 872.5
20260507105045 49 249 5.0 8.0 0.00 0.00 0.00 77 872.4
20260507104845 49 231 5.0 8.0 0.00 0.00 0.00 77 872.4
20260507104645 48 223 4.0 7.0 0.00 0.00 0.00 77 872.4
20260507104445 48 234 4.0 5.0 0.00 0.00 0.00 77 872.5
20260507104245 48 257 4.0 6.0 0.00 0.00 0.00 77 872.5
20260507104044 48 255 4.0 6.0 0.00 0.00 0.00 77 872.5
20260507103843 49 252 4.0 6.0 0.00 0.00 0.00 77 872.5
20260507103643 49 248 5.0 7.0 0.00 0.00 0.00 77 872.4
20260507103443 49 246 5.0 7.0 0.00 0.00 0.00 77 872.4
20260507103244 49 240 5.0 7.0 0.00 0.00 0.00 77 872.4
20260507103032 49 234 3.0 6.0 0.00 0.00 0.00 77 872.4
20260507102832 49 229 4.0 6.0 0.00 0.00 0.00 77 872.4
20260507102632 49 230 4.0 6.0 0.00 0.00 0.00 77 872.4
20260507102432 49 244 4.0 5.0 0.00 0.00 0.00 77 872.4
20260507102232 49 256 3.0 5.0 0.00 0.00 0.00 77 872.4
20260507102031 49 249 2.0 3.0 0.00 0.00 0.00 77 872.3
20260507101830 49 255 3.0 6.0 0.00 0.00 0.00 77 872.3
20260507101630 49 249 4.0 7.0 0.00 0.00 0.00 77 872.3
20260507101430 49 247 4.0 7.0 0.00 0.00 0.00 77 872.3
20260507101229 49 268 5.0 7.0 0.00 0.00 0.00 77 872.2
20260507101029 49 263 5.0 8.0 0.00 0.00 0.00 77 872.2
20260507100829 49 255 7.0 10.0 0.00 0.00 0.00 77 872.3
20260507100629 49 247 6.0 8.0 0.00 0.00 0.00 77 872.3
20260507100429 49 242 6.0 9.0 0.00 0.00 0.00 76 872.3
20260507100229 49 225 4.0 7.0 0.00 0.00 0.00 76 872.3
20260507100027 49 219 4.0 5.0 0.00 0.00 0.00 76 872.3
20260507095827 49 229 4.0 6.0 0.00 0.00 0.00 76 872.2
20260507095627 49 221 3.0 5.0 0.00 0.00 0.00 76 872.2
20260507095427 50 213 5.0 9.0 0.00 0.00 0.00 76 872.2
20260507095227 50 218 4.0 9.0 0.00 0.00 0.00 76 872.2
20260507095027 50 225 5.0 9.0 0.00 0.00 0.00 76 872.2
20260507094827 50 201 6.0 10.0 0.00 0.00 0.00 76 872.2
20260507094627 50 188 7.0 10.0 0.00 0.00 0.00 76 872.2
20260507094427 50 206 4.0 7.0 0.00 0.00 0.00 76 872.2
20260507094227 50 204 2.0 4.0 0.00 0.00 0.00 76 872.1
20260507094025 50 202 2.0 4.0 0.00 0.00 0.00 76 872.1
20260507093825 50 230 6.0 10.0 0.00 0.00 0.00 76 872.1
20260507093626 50 219 6.0 10.0 0.00 0.00 0.00 76 872.1
20260507093425 50 218 6.0 8.0 0.00 0.00 0.00 76 872.1
20260507093225 50 224 7.0 12.0 0.00 0.00 0.00 76 872.0
20260507093025 50 221 6.0 9.0 0.00 0.00 0.00 76 872.0
20260507092825 50 206 5.0 12.0 0.00 0.00 0.00 76 872.0
20260507092625 50 200 4.0 12.0 0.00 0.00 0.00 76 872.0
20260507092425 50 210 5.0 9.0 0.00 0.00 0.00 76 871.9
20260507092223 50 205 5.0 8.0 0.00 0.00 0.00 76 871.9
20260507092021 50 205 5.0 9.0 0.00 0.00 0.00 76 871.9
20260507091821 50 201 6.0 10.0 0.00 0.00 0.00 77 871.9
20260507091622 49 197 6.0 10.0 0.00 0.00 0.00 77 871.9
20260507091421 49 204 7.0 11.0 0.00 0.00 0.00 77 871.9
20260507091221 49 193 8.0 11.0 0.00 0.00 0.00 77 871.8
20260507091021 49 186 7.0 10.0 0.00 0.00 0.00 77 871.8
20260507090821 49 204 7.0 14.0 0.00 0.00 0.00 77 871.8
20260507090621 49 230 5.0 7.0 0.00 0.00 0.00 77 871.8
20260507090421 49 230 4.0 6.0 0.00 0.00 0.00 77 871.8
20260507090221 49 216 4.0 8.0 0.00 0.00 0.00 77 871.8
20260507090019 49 203 6.0 10.0 0.00 0.00 0.00 77 871.8
20260507085819 49 213 5.0 8.0 0.00 0.00 0.00 77 871.8
20260507085619 49 220 5.0 10.0 0.00 0.00 0.00 77 871.7
20260507085419 49 216 5.0 7.0 0.00 0.00 0.00 77 871.7
20260507085219 49 216 5.0 7.0 0.00 0.00 0.00 77 871.7
20260507085017 49 209 6.0 8.0 0.00 0.00 0.00 77 871.7
20260507084817 49 210 5.0 11.0 0.00 0.00 0.00 77 871.7
20260507084617 49 223 5.0 11.0 0.00 0.00 0.00 77 871.7
20260507084417 49 212 4.0 6.0 0.00 0.00 0.00 77 871.7
20260507084217 49 206 5.0 8.0 0.00 0.00 0.00 77 871.6
20260507084015 49 218 5.0 8.0 0.00 0.00 0.00 77 871.6
20260507083815 49 235 5.0 7.0 0.00 0.00 0.00 77 871.6
20260507083615 49 230 7.0 13.0 0.00 0.00 0.00 76 871.5
20260507083414 49 231 8.0 13.0 0.00 0.00 0.00 76 871.5
20260507083214 49 228 6.0 12.0 0.00 0.00 0.00 76 871.5
20260507083014 49 243 7.0 12.0 0.00 0.00 0.00 77 871.4
20260507082815 49 242 7.0 12.0 0.00 0.00 0.00 77 871.4
20260507082614 49 238 5.0 11.0 0.00 0.00 0.00 77 871.4
20260507082414 49 232 7.0 13.0 0.00 0.00 0.00 76 871.4
20260507082214 49 226 11.0 14.0 0.00 0.00 0.00 76 871.3
20260507082013 49 238 10.0 14.0 0.00 0.00 0.00 76 871.3
20260507081813 49 233 9.0 16.0 0.00 0.00 0.00 76 871.3
20260507081612 49 225 8.0 15.0 0.00 0.00 0.00 76 871.2
20260507081410 49 228 8.0 15.0 0.00 0.00 0.00 76 871.2
20260507081210 49 235 8.0 15.0 0.00 0.00 0.00 76 871.2
20260507081010 49 232 7.0 15.0 0.00 0.00 0.00 77 871.2
20260507080810 49 233 6.0 12.0 0.00 0.00 0.00 76 871.1
20260507080610 49 231 9.0 16.0 0.00 0.00 0.00 76 871.1
20260507080410 49 225 8.0 11.0 0.00 0.00 0.00 76 871.0
20260507080210 49 239 10.0 16.0 0.00 0.00 0.00 77 871.0
20260507080031 49 237 10.0 16.0 0.00 0.00 0.00 76 871.0
20260507075959 49 237 10.0 16.0 0.00 0.00 0.00 76 871.0
20260507075759 49 248 9.0 14.0 0.00 0.00 0.00 77 871.0
20260507075559 49 230 9.0 15.0 0.00 0.00 0.00 77 871.0
20260507075359 49 228 9.0 14.0 0.00 0.00 0.00 77 871.0
20260507075159 49 236 7.0 14.0 0.00 0.00 0.00 77 871.0
20260507074959 49 221 7.0 11.0 0.00 0.00 0.00 77 871.0
20260507074759 48 218 6.0 12.0 0.00 0.00 0.00 77 870.9
20260507074559 48 226 8.0 13.0 0.00 0.00 0.00 77 870.8
20260507074358 48 222 8.0 13.0 0.00 0.00 0.00 77 870.8
20260507073956 48 218 9.0 14.0 0.00 0.00 0.00 77 870.7
20260507073756 48 227 12.0 22.0 0.00 0.00 0.00 77 870.7
20260507073556 48 212 11.0 16.0 0.00 0.00 0.00 77 870.7
20260507073357 48 215 10.0 14.0 0.00 0.00 0.00 77 870.7
20260507073229 48 214 10.0 15.0 0.00 0.00 0.00 77 870.7
20260507073157 48 214 10.0 15.0 0.00 0.00 0.00 77 870.7
20260507072957 48 217 11.0 17.0 0.00 0.00 0.00 77 870.6
20260507072757 48 219 10.0 17.0 0.00 0.00 0.00 77 870.6
20260507072557 48 213 10.0 19.0 0.00 0.00 0.00 77 870.5
20260507072357 48 215 10.0 19.0 0.00 0.00 0.00 77 870.5
20260507072156 47 221 10.0 16.0 0.00 0.00 0.00 77 870.5
20260507071954 47 211 13.0 17.0 0.00 0.00 0.00 77 870.4
20260507071754 47 212 14.0 20.0 0.00 0.00 0.00 77 870.4
20260507071554 47 216 13.0 20.0 0.00 0.00 0.00 77 870.4
20260507071354 47 219 12.0 15.0 0.00 0.00 0.00 78 870.4
20260507071154 47 219 12.0 20.0 0.00 0.00 0.00 77 870.3
20260507070954 47 217 13.0 20.0 0.00 0.00 0.00 78 870.3
20260507070754 47 215 15.0 24.0 0.00 0.00 0.00 78 870.2
20260507070552 47 220 17.0 24.0 0.00 0.00 0.00 77 870.1
20260507070352 47 220 16.0 22.0 0.00 0.00 0.00 77 870.1
20260507070152 47 226 14.0 21.0 0.00 0.00 0.00 77 870.1
20260507065950 47 226 12.0 17.0 0.00 0.00 0.00 77 870.2
20260507065750 47 221 12.0 16.0 0.00 0.00 0.00 77 870.2
20260507065550 47 220 11.0 18.0 0.00 0.00 0.00 77 870.2
20260507065350 47 221 12.0 18.0 0.00 0.00 0.00 77 870.1
20260507065150 47 218 14.0 18.0 0.00 0.00 0.00 77 870.1
20260507064949 47 217 12.0 19.0 0.00 0.00 0.00 77 870.1
20260507064749 47 212 12.0 19.0 0.00 0.00 0.00 77 870.1
20260507064549 47 215 13.0 21.0 0.00 0.00 0.00 77 870.1
20260507064349 47 218 13.0 22.0 0.00 0.00 0.00 77 870.1
20260507064149 47 220 12.0 22.0 0.00 0.00 0.00 77 870.1
20260507063947 47 214 14.0 22.0 0.00 0.00 0.00 77 870.0
20260507063747 47 215 14.0 26.0 0.00 0.00 0.00 78 870.0
20260507063547 47 207 12.0 17.0 0.00 0.00 0.00 78 870.0
20260507063347 47 210 12.0 21.0 0.00 0.00 0.00 78 870.0
20260507063147 47 213 13.0 23.0 0.00 0.00 0.00 78 870.0
20260507062947 47 209 14.0 23.0 0.00 0.00 0.00 78 869.9
20260507062747 47 213 14.0 23.0 0.00 0.00 0.00 77 869.9
20260507062547 47 204 12.0 19.0 0.00 0.00 0.00 78 869.9
20260507062347 47 201 14.0 23.0 0.00 0.00 0.00 77 869.9
20260507062147 47 196 14.0 23.0 0.00 0.00 0.00 77 869.8
20260507061945 47 201 13.0 21.0 0.00 0.00 0.00 78 869.8
20260507061745 47 194 13.0 25.0 0.00 0.00 0.00 78 869.7
20260507061546 47 205 14.0 25.0 0.00 0.00 0.00 78 869.7
20260507061346 47 203 13.0 22.0 0.00 0.00 0.00 78 869.6
20260507061146 46 207 14.0 25.0 0.00 0.00 0.00 78 869.6
20260507060946 46 209 16.0 23.0 0.00 0.00 0.00 78 869.5
20260507060746 46 202 14.0 22.0 0.00 0.00 0.00 78 869.4
20260507060546 46 198 18.0 30.0 0.00 0.00 0.00 78 869.4
20260507060346 46 194 16.0 30.0 0.00 0.00 0.00 78 869.3
20260507060146 46 198 17.0 25.0 0.00 0.00 0.00 78 869.3
20260507055944 46 191 20.0 30.0 0.00 0.00 0.00 78 869.3
20260507055742 46 193 20.0 30.0 0.00 0.00 0.00 78 869.2
20260507055542 46 193 19.0 27.0 0.00 0.00 0.00 78 869.2
20260507055342 46 191 22.0 36.0 0.00 0.00 0.00 78 869.1
20260507055142 46 187 22.0 29.0 0.00 0.00 0.00 78 869.1
20260507054942 46 189 22.0 32.0 0.00 0.00 0.00 78 869.0
20260507054820 46 185 26.0 32.0 0.00 0.00 0.00 78 869.0
20260507054742 46 185 26.0 32.0 0.00 0.00 0.00 78 869.0
20260507054542 46 193 23.0 32.0 0.00 0.00 0.00 78 869.0
20260507054342 46 196 20.0 31.0 0.00 0.00 0.00 78 869.0
20260507054142 46 192 20.0 31.0 0.00 0.00 0.00 78 868.9
20260507053940 46 189 23.0 32.0 0.00 0.00 0.00 78 868.8
20260507053740 46 186 26.0 33.0 0.00 0.00 0.00 78 868.8
20260507053540 46 189 24.0 33.0 0.00 0.00 0.00 78 868.8
20260507053340 46 193 23.0 31.0 0.00 0.00 0.00 78 868.9
20260507053140 46 190 21.0 32.0 0.00 0.00 0.00 78 868.8
20260507052931 46 188 22.0 34.0 0.00 0.00 0.00 78 868.8
20260507052731 46 191 22.0 32.0 0.00 0.00 0.00 78 868.8
20260507052531 46 187 23.0 30.0 0.00 0.00 0.00 78 868.8
20260507052331 46 188 24.0 32.0 0.00 0.00 0.00 78 868.8
20260507052131 46 192 24.0 32.0 0.00 0.00 0.00 78 868.9
20260507051929 46 194 22.0 30.0 0.00 0.00 0.00 78 868.9
20260507051729 46 190 24.0 36.0 0.00 0.00 0.00 78 868.9
20260507051530 46 188 26.0 36.0 0.00 0.00 0.00 78 868.8
20260507051329 46 186 25.0 35.0 0.00 0.00 0.00 78 868.8
20260507051129 46 186 23.0 34.0 0.00 0.00 0.00 78 868.8
20260507050929 46 186 23.0 30.0 0.00 0.00 0.00 78 868.8
20260507050729 46 191 20.0 30.0 0.00 0.00 0.00 78 868.8
20260507050529 46 193 19.0 33.0 0.00 0.00 0.00 78 868.8
20260507050329 46 187 24.0 33.0 0.00 0.00 0.00 78 868.7
20260507050129 46 192 24.0 33.0 0.00 0.00 0.00 78 868.7
20260507045926 45 193 20.0 30.0 0.00 0.00 0.00 78 868.7
20260507045726 45 191 19.0 28.0 0.00 0.00 0.00 78 868.7
20260507045526 45 200 19.0 25.0 0.00 0.00 0.00 78 868.7
20260507045326 45 209 18.0 25.0 0.00 0.00 0.00 78 868.7
20260507045127 45 207 17.0 23.0 0.00 0.00 0.00 78 868.6
20260507044925 45 197 21.0 29.0 0.00 0.00 0.00 78 868.6
20260507044725 45 194 21.0 29.0 0.00 0.00 0.00 78 868.5
20260507044525 45 196 20.0 29.0 0.00 0.00 0.00 78 868.6
20260507044325 45 197 18.0 26.0 0.00 0.00 0.00 78 868.6
20260507044125 45 194 20.0 31.0 0.00 0.00 0.00 78 868.6
20260507043923 45 194 19.0 31.0 0.00 0.00 0.00 78 868.6
20260507043723 45 197 19.0 25.0 0.00 0.00 0.00 78 868.6
20260507043523 45 191 20.0 28.0 0.00 0.00 0.00 78 868.7
20260507043323 45 193 20.0 30.0 0.00 0.00 0.00 78 868.7
20260507043123 45 199 20.0 30.0 0.00 0.00 0.00 78 868.7
20260507042923 45 203 17.0 27.0 0.00 0.00 0.00 78 868.7
20260507042723 45 197 18.0 26.0 0.00 0.00 0.00 78 868.7
20260507042523 45 198 19.0 29.0 0.00 0.00 0.00 78 868.8
20260507042323 45 197 19.0 29.0 0.00 0.00 0.00 78 868.8
20260507042123 45 197 18.0 29.0 0.00 0.00 0.00 78 868.7
20260507041921 45 194 16.0 26.0 0.00 0.00 0.00 78 868.7
20260507041721 45 200 17.0 26.0 0.00 0.00 0.00 77 868.7
20260507041521 45 199 20.0 30.0 0.00 0.00 0.00 77 868.7
20260507041321 45 203 19.0 33.0 0.00 0.00 0.00 77 868.7
20260507041122 45 201 19.0 33.0 0.00 0.00 0.00 77 868.7
20260507040921 45 199 16.0 21.0 0.00 0.00 0.00 77 868.6
20260507040721 45 196 19.0 32.0 0.00 0.00 0.00 77 868.6
20260507040521 45 198 18.0 32.0 0.00 0.00 0.00 77 868.6
20260507040321 45 192 17.0 29.0 0.00 0.00 0.00 77 868.5
20260507040121 45 193 21.0 29.0 0.00 0.00 0.00 77 868.5
20260507035919 45 189 23.0 29.0 0.00 0.00 0.00 77 868.5
20260507035719 45 190 23.0 30.0 0.00 0.00 0.00 77 868.5
20260507035519 45 189 23.0 30.0 0.00 0.00 0.00 77 868.4
20260507035319 45 189 22.0 31.0 0.00 0.00 0.00 77 868.4
20260507035119 45 188 21.0 27.0 0.00 0.00 0.00 77 868.3
20260507034919 45 188 23.0 32.0 0.00 0.00 0.00 77 868.3
20260507034719 45 189 24.0 32.0 0.00 0.00 0.00 77 868.3
20260507034519 45 192 23.0 34.0 0.00 0.00 0.00 77 868.3
20260507034319 45 188 26.0 34.0 0.00 0.00 0.00 77 868.3
20260507034117 45 190 26.0 40.0 0.00 0.00 0.00 77 868.2
20260507033915 45 184 23.0 40.0 0.00 0.00 0.00 77 868.2
20260507033715 45 186 25.0 39.0 0.00 0.00 0.00 77 868.1
20260507033515 45 183 25.0 39.0 0.00 0.00 0.00 77 868.0
20260507033315 45 184 24.0 35.0 0.00 0.00 0.00 77 868.0
20260507033115 45 183 27.0 35.0 0.00 0.00 0.00 76 867.9
20260507032914 45 182 26.0 36.0 0.00 0.00 0.00 76 867.9
20260507032715 45 181 23.0 31.0 0.00 0.00 0.00 76 868.0
20260507032515 45 183 23.0 34.0 0.00 0.00 0.00 76 868.0
20260507032315 45 183 25.0 34.0 0.00 0.00 0.00 76 868.0
20260507032115 45 185 24.0 33.0 0.00 0.00 0.00 76 868.0
20260507031913 45 188 25.0 36.0 0.00 0.00 0.00 76 868.0
20260507031713 45 186 25.0 35.0 0.00 0.00 0.00 76 868.0
20260507031513 45 186 24.0 35.0 0.00 0.00 0.00 76 868.0
20260507031313 45 186 27.0 34.0 0.00 0.00 0.00 76 812.1
20260507031113 45 190 26.0 31.0 0.00 0.00 0.00 76 756.4
20260507030902 45 183 25.0 32.0 0.00 0.00 0.00 76 868.1
20260507030700 45 183 24.0 32.0 0.00 0.00 0.00 76 868.2
20260507030500 45 189 22.0 30.0 0.00 0.00 0.00 76 868.2
20260507030300 46 186 25.0 35.0 0.00 0.00 0.00 76 868.1
20260507030100 46 185 26.0 38.0 0.00 0.00 0.00 76 868.1
20260507025900 46 183 24.0 35.0 0.00 0.00 0.00 76 868.2
20260507025700 46 183 26.0 38.0 0.00 0.00 0.00 75 868.1
20260507025500 46 184 23.0 28.0 0.00 0.00 0.00 75 868.2
20260507025300 46 182 25.0 38.0 0.00 0.00 0.00 75 868.1
20260507025100 46 182 26.0 38.0 0.00 0.00 0.00 75 868.2
20260507024859 46 183 27.0 37.0 0.00 0.00 0.00 75 868.2
20260507024659 46 182 25.0 37.0 0.00 0.00 0.00 75 868.1
20260507024459 46 182 23.0 33.0 0.00 0.00 0.00 75 868.2
20260507024259 46 177 23.0 33.0 0.00 0.00 0.00 75 868.2
20260507024059 46 172 25.0 34.0 0.00 0.00 0.00 75 868.3
20260507023859 46 174 23.0 32.0 0.00 0.00 0.00 75 868.3
20260507023659 46 182 24.0 31.0 0.00 0.00 0.00 75 868.3
20260507023459 46 175 24.0 31.0 0.00 0.00 0.00 75 868.3
20260507023259 46 180 23.0 30.0 0.00 0.00 0.00 75 868.3
20260507023059 46 178 20.0 28.0 0.00 0.00 0.00 75 868.3
20260507022857 46 175 20.0 28.0 0.00 0.00 0.00 75 868.3
20260507022657 46 172 21.0 33.0 0.00 0.00 0.00 75 868.3
20260507022457 46 174 22.0 33.0 0.00 0.00 0.00 75 868.3
20260507022257 46 175 21.0 36.0 0.00 0.00 0.00 75 868.3
20260507022057 46 180 24.0 36.0 0.00 0.00 0.00 75 868.3
20260507021857 46 172 21.0 36.0 0.00 0.00 0.00 75 868.3
20260507021657 46 167 21.0 36.0 0.00 0.00 0.00 74 868.2
20260507021457 46 172 23.0 30.0 0.00 0.00 0.00 74 868.2
20260507021257 46 172 22.0 27.0 0.00 0.00 0.00 74 868.2
20260507021057 46 177 24.0 35.0 0.00 0.00 0.00 74 868.2
20260507020855 46 182 24.0 33.0 0.00 0.00 0.00 74 868.2
20260507020655 46 178 26.0 36.0 0.00 0.00 0.00 74 868.1
20260507020455 46 180 24.0 36.0 0.00 0.00 0.00 74 868.1
20260507020255 46 175 24.0 34.0 0.00 0.00 0.00 74 868.1
20260507020055 46 172 24.0 34.0 0.00 0.00 0.00 74 868.1
20260507015853 46 174 21.0 28.0 0.00 0.00 0.00 74 868.3
20260507015653 46 179 20.0 26.0 0.00 0.00 0.00 74 868.3
20260507015453 46 178 19.0 27.0 0.00 0.00 0.00 74 868.3
20260507015253 46 175 19.0 28.0 0.00 0.00 0.00 74 868.2
20260507015053 46 177 22.0 32.0 0.00 0.00 0.00 74 868.2
20260507014851 46 173 26.0 33.0 0.00 0.00 0.00 74 868.1
20260507014651 46 172 24.0 36.0 0.00 0.00 0.00 74 868.0
20260507014451 46 171 22.0 34.0 0.00 0.00 0.00 74 868.0
20260507014251 46 166 25.0 34.0 0.00 0.00 0.00 74 868.0
20260507014051 46 161 22.0 34.0 0.00 0.00 0.00 74 868.0
20260507013851 46 169 24.0 33.0 0.00 0.00 0.00 74 868.1
20260507013651 46 177 23.0 33.0 0.00 0.00 0.00 73 868.2
20260507013451 46 180 21.0 32.0 0.00 0.00 0.00 73 868.3
20260507013252 46 176 23.0 32.0 0.00 0.00 0.00 73 868.4
20260507013050 46 178 21.0 26.0 0.00 0.00 0.00 73 868.5
20260507012848 46 182 22.0 29.0 0.00 0.00 0.00 73 868.5
20260507012648 46 180 20.0 28.0 0.00 0.00 0.00 73 868.5
20260507012448 46 177 20.0 28.0 0.00 0.00 0.00 73 868.5
20260507012248 46 179 20.0 28.0 0.00 0.00 0.00 73 868.5
20260507012048 46 187 19.0 29.0 0.00 0.00 0.00 73 868.5
20260507011848 47 179 21.0 33.0 0.00 0.00 0.00 73 868.5
20260507011648 47 182 19.0 33.0 0.00 0.00 0.00 73 868.4
20260507011448 47 185 17.0 30.0 0.00 0.00 0.00 73 868.4
20260507011248 47 180 18.0 30.0 0.00 0.00 0.00 73 868.4
20260507011048 47 174 18.0 25.0 0.00 0.00 0.00 73 868.4
20260507010846 47 171 22.0 33.0 0.00 0.00 0.00 73 868.3
20260507010645 47 172 23.0 33.0 0.00 0.00 0.00 73 868.3
20260507010446 47 175 20.0 31.0 0.00 0.00 0.00 73 868.3
20260507010246 47 177 17.0 24.0 0.00 0.00 0.00 72 868.3
20260507010046 47 178 19.0 28.0 0.00 0.00 0.00 72 868.2
20260507005844 47 184 20.0 28.0 0.00 0.00 0.00 72 868.2
20260507005645 47 185 20.0 27.0 0.00 0.00 0.00 72 868.2
20260507005444 47 179 20.0 27.0 0.00 0.00 0.00 72 868.2
20260507005245 47 182 19.0 26.0 0.00 0.00 0.00 72 868.2
20260507005042 47 179 17.0 26.0 0.00 0.00 0.00 72 868.3
20260507004840 47 178 18.0 26.0 0.00 0.00 0.00 72 868.3
20260507004640 47 177 18.0 23.0 0.00 0.00 0.00 72 868.2
20260507004441 47 178 19.0 31.0 0.00 0.00 0.00 72 868.2
20260507004240 47 178 24.0 39.0 0.00 0.00 0.00 72 868.2
20260507004040 47 184 22.0 39.0 0.00 0.00 0.00 72 868.2
20260507003831 47 184 16.0 26.0 0.00 0.00 0.00 72 868.3
20260507003631 47 175 18.0 24.0 0.00 0.00 0.00 72 868.3
20260507003431 47 180 17.0 25.0 0.00 0.00 0.00 72 868.3
20260507003231 47 180 18.0 27.0 0.00 0.00 0.00 72 868.3
20260507003031 47 174 19.0 27.0 0.00 0.00 0.00 72 868.3
20260507002829 47 175 14.0 25.0 0.00 0.00 0.00 72 868.3
20260507002629 47 175 18.0 31.0 0.00 0.00 0.00 72 868.2
20260507002429 47 168 20.0 36.0 0.00 0.00 0.00 72 868.1
20260507002229 47 172 18.0 36.0 0.00 0.00 0.00 72 868.2
20260507002029 48 177 12.0 19.0 0.00 0.00 0.00 71 868.2
20260507001827 48 175 17.0 31.0 0.00 0.00 0.00 72 868.2
20260507001627 48 175 22.0 33.0 0.00 0.00 0.00 72 868.2
20260507001427 48 183 20.0 42.0 0.00 0.00 0.00 71 868.2
20260507001227 48 182 20.0 42.0 0.00 0.00 0.00 71 868.1
20260507001027 48 180 21.0 37.0 0.00 0.00 0.00 71 868.1
20260507000825 48 175 23.0 37.0 0.00 0.00 0.00 71 868.1
20260507000427 48 180 20.0 29.0 0.00 0.00 0.00 71 868.1
20260507000226 48 182 21.0 33.0 0.00 0.00 0.00 71 868.1
20260507000025 48 183 21.0 33.0 0.00 0.00 0.00 71 868.1
20260506235825 48 178 20.0 25.0 0.00 0.00 0.00 71 868.1
20260506235625 48 173 21.0 28.0 0.00 0.00 0.00 71 868.1
20260506235425 48 169 17.0 25.0 0.00 0.00 0.00 71 868.0
20260506235225 48 171 18.0 29.0 0.00 0.00 0.00 71 868.0
20260506235025 48 171 20.0 33.0 0.00 0.00 0.00 71 868.0
20260506234823 48 173 22.0 33.0 0.00 0.00 0.00 71 868.0
20260506234623 48 174 21.0 29.0 0.00 0.00 0.00 71 868.0
20260506234423 48 173 19.0 29.0 0.00 0.00 0.00 71 868.0
20260506234221 48 168 20.0 25.0 0.00 0.00 0.00 71 868.0
20260506234021 48 173 21.0 29.0 0.00 0.00 0.00 71 868.0
20260506233821 48 170 22.0 34.0 0.00 0.00 0.00 71 868.0
20260506233621 48 167 24.0 38.0 0.00 0.00 0.00 71 868.0
20260506233421 48 168 26.0 38.0 0.00 0.00 0.00 71 868.1
20260506233222 48 170 20.0 35.0 0.00 0.00 0.00 71 868.1
20260506233022 48 171 20.0 33.0 0.00 0.00 0.00 71 868.1
20260506232820 48 172 22.0 33.0 0.00 0.00 0.00 71 868.1
20260506232619 49 172 24.0 38.0 0.00 0.00 0.00 71 868.1
20260506232419 49 175 23.0 38.0 0.00 0.00 0.00 71 868.1
20260506232219 49 172 20.0 30.0 0.00 0.00 0.00 71 868.2
20260506232019 49 168 19.0 26.0 0.00 0.00 0.00 70 868.2
20260506231819 49 166 19.0 26.0 0.00 0.00 0.00 70 868.2
20260506231619 49 158 20.0 28.0 0.00 0.00 0.00 70 868.2
20260506231419 49 169 21.0 29.0 0.00 0.00 0.00 70 868.2
20260506231219 49 177 22.0 31.0 0.00 0.00 0.00 70 868.3
20260506231019 49 170 16.0 25.0 0.00 0.00 0.00 70 868.4
20260506230818 49 167 14.0 18.0 0.00 0.00 0.00 70 868.4
20260506230618 49 160 13.0 18.0 0.00 0.00 0.00 70 868.4
20260506230418 49 160 15.0 20.0 0.00 0.00 0.00 70 868.4
20260506230218 49 163 15.0 20.0 0.00 0.00 0.00 70 868.4
20260506230018 49 158 12.0 19.0 0.00 0.00 0.00 70 868.4
20260506225817 49 157 17.0 22.0 0.00 0.00 0.00 70 868.3
20260506225617 49 162 20.0 29.0 0.00 0.00 0.00 70 868.1
20260506225417 49 167 24.0 35.0 0.00 0.00 0.00 70 868.1
20260506225218 49 164 21.0 33.0 0.00 0.00 0.00 70 868.2
20260506225018 49 159 22.0 38.0 0.00 0.00 0.00 70 868.2
20260506224816 49 156 18.0 26.0 0.00 0.00 0.00 70 868.2
20260506224616 49 154 17.0 27.0 0.00 0.00 0.00 70 868.1
20260506224416 49 159 21.0 35.0 0.00 0.00 0.00 69 868.1
20260506224216 49 160 19.0 34.0 0.00 0.00 0.00 70 868.2
20260506224016 49 154 21.0 34.0 0.00 0.00 0.00 69 868.2
20260506223816 49 161 21.0 31.0 0.00 0.00 0.00 69 868.2
20260506223616 49 159 20.0 30.0 0.00 0.00 0.00 69 868.2
20260506223414 49 156 17.0 28.0 0.00 0.00 0.00 69 868.2
20260506223214 50 164 18.0 34.0 0.00 0.00 0.00 69 868.1
20260506223014 50 157 20.0 28.0 0.00 0.00 0.00 69 868.1
20260506222812 50 161 20.0 28.0 0.00 0.00 0.00 69 868.2
20260506222612 50 168 20.0 27.0 0.00 0.00 0.00 69 868.3
20260506222412 50 171 17.0 25.0 0.00 0.00 0.00 69 868.3
20260506222212 50 168 20.0 40.0 0.00 0.00 0.00 69 868.3
20260506222012 50 168 23.0 40.0 0.00 0.00 0.00 69 868.3
20260506221812 50 162 19.0 30.0 0.00 0.00 0.00 69 868.3
20260506221612 50 155 18.0 28.0 0.00 0.00 0.00 69 868.3
20260506221412 50 160 17.0 27.0 0.00 0.00 0.00 69 868.3
20260506221212 50 153 20.0 29.0 0.00 0.00 0.00 69 868.2
20260506221012 50 159 23.0 36.0 0.00 0.00 0.00 68 868.2
20260506220801 50 158 22.0 36.0 0.00 0.00 0.00 68 868.2
20260506220601 50 158 21.0 31.0 0.00 0.00 0.00 68 868.3
20260506220401 50 153 20.0 31.0 0.00 0.00 0.00 68 868.3
20260506220201 50 154 21.0 29.0 0.00 0.00 0.00 68 868.2
20260506220001 50 157 23.0 39.0 0.00 0.00 0.00 68 868.2
20260506215801 50 160 20.0 33.0 0.00 0.00 0.00 68 868.2
20260506215601 50 158 26.0 43.0 0.00 0.00 0.00 68 868.2
20260506215401 50 150 23.0 43.0 0.00 0.00 0.00 68 868.2
20260506215201 50 150 20.0 30.0 0.00 0.00 0.00 68 868.3
20260506215001 50 149 20.0 28.0 0.00 0.00 0.00 68 868.3
20260506214759 50 152 20.0 30.0 0.00 0.00 0.00 68 868.3
20260506214559 50 156 19.0 30.0 0.00 0.00 0.00 68 868.4
20260506214359 50 156 16.0 28.0 0.00 0.00 0.00 68 868.4
20260506214159 50 154 17.0 23.0 0.00 0.00 0.00 68 868.4
20260506213959 50 155 18.0 28.0 0.00 0.00 0.00 68 868.4
20260506213759 50 152 15.0 26.0 0.00 0.00 0.00 68 868.4
20260506213559 50 159 18.0 29.0 0.00 0.00 0.00 68 868.4
20260506213359 50 161 20.0 32.0 0.00 0.00 0.00 67 868.4
20260506213159 50 161 17.0 26.0 0.00 0.00 0.00 67 868.3
20260506212959 50 167 17.0 26.0 0.00 0.00 0.00 67 868.3
20260506212757 50 171 14.0 23.0 0.00 0.00 0.00 67 868.4
20260506212555 50 169 15.0 24.0 0.00 0.00 0.00 67 868.4
20260506212355 50 168 18.0 29.0 0.00 0.00 0.00 67 868.4
20260506212155 51 167 20.0 30.0 0.00 0.00 0.00 67 868.4
20260506211955 51 165 20.0 30.0 0.00 0.00 0.00 67 868.4
20260506211755 51 175 19.0 27.0 0.00 0.00 0.00 67 868.5
20260506211556 51 177 17.0 24.0 0.00 0.00 0.00 67 868.5
20260506211355 51 164 18.0 29.0 0.00 0.00 0.00 67 868.4
20260506211156 51 160 18.0 29.0 0.00 0.00 0.00 67 868.4
20260506210956 51 166 18.0 28.0 0.00 0.00 0.00 67 868.4
20260506210754 51 167 15.0 26.0 0.00 0.00 0.00 67 868.3
20260506210554 51 162 20.0 30.0 0.00 0.00 0.00 67 868.2
20260506210354 51 169 24.0 32.0 0.00 0.00 0.00 67 868.2
20260506210154 51 170 19.0 32.0 0.00 0.00 0.00 67 868.2
20260506205954 51 159 19.0 28.0 0.00 0.00 0.00 67 868.2
20260506205754 51 157 19.0 29.0 0.00 0.00 0.00 66 868.2
20260506205554 51 156 18.0 27.0 0.00 0.00 0.00 66 868.2
20260506205354 51 164 20.0 29.0 0.00 0.00 0.00 66 868.2
20260506205154 51 159 20.0 30.0 0.00 0.00 0.00 66 868.2
20260506204954 51 154 20.0 29.0 0.00 0.00 0.00 66 868.1
20260506204752 51 161 24.0 38.0 0.00 0.00 0.00 66 868.0
20260506204552 51 164 24.0 38.0 0.00 0.00 0.00 66 868.1
20260506204352 51 158 23.0 36.0 0.00 0.00 0.00 66 868.0
20260506204152 51 158 24.0 36.0 0.00 0.00 0.00 66 867.9
20260506203952 51 163 23.0 38.0 0.00 0.00 0.00 66 868.0
20260506203752 51 158 21.0 43.0 0.00 0.00 0.00 66 868.1
20260506203552 51 156 21.0 43.0 0.00 0.00 0.00 66 868.1
20260506203352 51 160 21.0 29.0 0.00 0.00 0.00 66 868.1
20260506203152 51 159 21.0 28.0 0.00 0.00 0.00 65 868.1
20260506202952 51 157 22.0 36.0 0.00 0.00 0.00 65 868.1
20260506202750 52 156 20.0 27.0 0.00 0.00 0.00 65 868.1
20260506202550 52 157 20.0 28.0 0.00 0.00 0.00 65 868.1
20260506202350 52 158 22.0 34.0 0.00 0.00 0.00 65 868.1
20260506202150 52 164 20.0 30.0 0.00 0.00 0.00 65 868.2
20260506201950 52 157 18.0 27.0 0.00 0.00 0.00 65 868.2
20260506201748 52 162 22.0 27.0 0.00 0.00 0.00 65 868.2
20260506201548 52 160 24.0 35.0 0.00 0.00 0.00 65 868.2
20260506201348 52 154 21.0 35.0 0.00 0.00 0.00 65 868.2
20260506201148 52 154 20.0 38.0 0.00 0.00 0.00 65 868.2
20260506200948 52 159 20.0 31.0 0.00 0.00 0.00 64 868.3
20260506200746 52 163 19.0 28.0 0.00 0.00 0.00 65 868.3
20260506200546 52 160 22.0 33.0 0.00 0.00 0.00 65 868.3
20260506200346 52 161 22.0 33.0 0.00 0.00 0.00 64 868.4
20260506200146 52 144 16.0 25.0 0.00 0.00 0.00 64 868.4
20260506195946 52 145 19.0 38.0 0.00 0.00 0.00 64 868.4
20260506195746 52 150 19.0 29.0 0.00 0.00 0.00 64 868.3
20260506195546 52 158 18.0 29.0 0.00 0.00 0.00 64 868.4
20260506195346 52 152 16.0 23.0 0.00 0.00 0.00 64 868.5
20260506195147 52 146 17.0 23.0 0.00 0.00 0.00 64 868.5
20260506194946 52 153 18.0 38.0 0.00 0.00 0.00 64 868.5
20260506194745 52 154 18.0 27.0 0.00 0.00 0.00 64 868.5
20260506194545 52 152 20.0 33.0 0.00 0.00 0.00 64 868.5
20260506194345 52 149 18.0 31.0 0.00 0.00 0.00 64 868.5
20260506194145 52 154 17.0 25.0 0.00 0.00 0.00 64 868.6
20260506193945 52 155 16.0 24.0 0.00 0.00 0.00 64 868.6
20260506193735 52 159 17.0 26.0 0.00 0.00 0.00 63 868.6
20260506193535 52 149 16.0 26.0 0.00 0.00 0.00 63 868.7
20260506193336 52 153 16.0 25.0 0.00 0.00 0.00 63 868.7
20260506193136 52 151 14.0 22.0 0.00 0.00 0.00 63 868.7
20260506192936 52 145 12.0 25.0 0.00 0.00 0.00 63 868.7
20260506192733 52 143 13.0 25.0 0.00 0.00 0.00 63 868.7
20260506192533 52 153 16.0 25.0 0.00 0.00 0.00 63 868.7
20260506192333 52 148 11.0 16.0 0.00 0.00 0.00 63 868.7
20260506192133 52 148 12.0 17.0 0.00 0.00 0.00 63 868.7
20260506191933 52 145 12.0 17.0 0.00 0.00 0.00 63 868.7
20260506191733 52 130 11.0 16.0 0.00 0.00 0.00 63 868.7
20260506191534 52 134 11.0 16.0 0.00 0.00 0.00 63 868.7
20260506191333 52 133 11.0 15.0 0.00 0.00 0.00 63 868.7
20260506191133 52 136 11.0 16.0 0.00 0.00 0.00 63 868.7
20260506190931 52 137 13.0 22.0 0.00 0.00 0.00 63 868.8
20260506190729 52 131 12.0 18.0 0.00 0.00 0.00 63 868.8
20260506190530 52 128 10.0 16.0 0.00 0.00 0.00 63 868.8
20260506190330 53 135 10.0 20.0 0.00 0.00 0.00 63 868.8
20260506190129 52 124 7.0 15.0 0.00 0.00 0.00 63 868.8
20260506185929 53 115 11.0 16.0 0.00 0.00 0.00 63 868.7
20260506185729 53 123 12.0 19.0 0.00 0.00 0.00 63 868.7
20260506185530 53 140 11.0 16.0 0.00 0.00 0.00 63 868.7
20260506185329 53 134 10.0 14.0 0.00 0.00 0.00 63 868.8
20260506185129 53 125 11.0 15.0 0.00 0.00 0.00 62 868.8
20260506184930 53 122 11.0 20.0 0.00 0.00 0.00 62 868.8
20260506184728 53 132 12.0 20.0 0.00 0.00 0.00 62 868.7
20260506184528 53 139 12.0 20.0 0.00 0.00 0.00 62 868.7
20260506184328 53 144 14.0 22.0 0.00 0.00 0.00 62 868.6
20260506184128 53 142 16.0 24.0 0.00 0.00 0.00 62 868.6
20260506183928 53 137 14.0 22.0 0.00 0.00 0.00 62 868.7
20260506183726 53 126 14.0 20.0 0.00 0.00 0.00 62 868.6
20260506183526 53 134 15.0 23.0 0.00 0.00 0.00 62 868.7
20260506183326 53 128 11.0 16.0 0.00 0.00 0.00 62 868.6
20260506183126 53 127 11.0 17.0 0.00 0.00 0.00 62 868.6
20260506182926 53 129 12.0 22.0 0.00 0.00 0.00 62 868.6
20260506182724 53 139 13.0 22.0 0.00 0.00 0.00 62 868.6
20260506182524 53 142 12.0 19.0 0.00 0.00 0.00 62 868.7
20260506182324 53 146 16.0 24.0 0.00 0.00 0.00 62 868.6
20260506182124 53 141 16.0 23.0 0.00 0.00 0.00 62 868.6
20260506181924 53 140 16.0 25.0 0.00 0.00 0.00 62 868.6
20260506181724 53 144 14.0 20.0 0.00 0.00 0.00 62 868.6
20260506181524 53 139 14.0 21.0 0.00 0.00 0.00 62 868.6
20260506181324 53 145 14.0 22.0 0.00 0.00 0.00 62 868.6
20260506181124 53 156 13.0 22.0 0.00 0.00 0.00 62 868.6
20260506180924 53 146 8.0 18.0 0.00 0.00 0.00 62 868.7
20260506180722 53 134 10.0 14.0 0.00 0.00 0.00 61 868.8
20260506180522 54 130 8.0 14.0 0.00 0.00 0.00 61 868.8
20260506180322 54 120 9.0 13.0 0.00 0.00 0.00 61 868.8
20260506180120 54 126 12.0 19.0 0.00 0.00 0.00 61 868.7
20260506175920 54 133 11.0 18.0 0.00 0.00 0.00 61 868.8
20260506175720 54 135 12.0 18.0 0.00 0.00 0.00 61 868.8
20260506175520 54 115 10.0 18.0 0.00 0.00 0.00 61 868.9
20260506175320 54 107 8.0 13.0 0.00 0.00 0.00 61 868.9
20260506175120 54 131 12.0 18.0 0.00 0.00 0.00 61 868.9
20260506174920 54 140 8.0 16.0 0.00 0.00 0.00 61 868.9
20260506174718 54 147 8.0 14.0 0.00 0.00 0.00 61 869.0
20260506174518 54 110 9.0 14.0 0.00 0.00 0.00 61 869.0
20260506174319 54 122 9.0 18.0 0.00 0.00 0.00 61 869.0
20260506174118 54 120 8.0 12.0 0.00 0.00 0.00 61 868.9
20260506173918 54 133 9.0 16.0 0.00 0.00 0.00 61 868.9
20260506173718 54 119 6.0 16.0 0.00 0.00 0.00 61 869.0
20260506173518 54 114 9.0 17.0 0.00 0.00 0.00 61 868.9
20260506173318 54 119 9.0 17.0 0.00 0.00 0.00 61 869.0
20260506173118 54 105 9.0 14.0 0.00 0.00 0.00 61 869.0
20260506172918 54 118 11.0 14.0 0.00 0.00 0.00 60 868.9
20260506172716 55 136 12.0 20.0 0.00 0.00 0.00 60 869.0
20260506172516 55 135 7.0 12.0 0.00 0.00 0.00 60 869.0
20260506172316 55 138 9.0 16.0 0.00 0.00 0.00 60 869.0
20260506172116 55 142 10.0 16.0 0.00 0.00 0.00 60 869.0
20260506171916 55 139 10.0 19.0 0.00 0.00 0.00 60 869.0
20260506171717 55 145 7.0 14.0 0.00 0.00 0.00 60 869.0
20260506171517 55 131 6.0 13.0 0.00 0.00 0.00 60 869.0
20260506171317 55 128 8.0 13.0 0.00 0.00 0.00 60 869.0
20260506171117 55 135 8.0 13.0 0.00 0.00 0.00 60 869.1
20260506170917 55 142 10.0 20.0 0.00 0.00 0.00 60 869.0
20260506170705 55 142 12.0 20.0 0.00 0.00 0.00 60 869.0
20260506170505 55 151 15.0 30.0 0.00 0.00 0.00 60 869.0
20260506170305 56 151 12.0 30.0 0.00 0.00 0.00 60 869.1
20260506170106 56 143 11.0 18.0 0.00 0.00 0.00 60 869.1
20260506165906 56 143 13.0 21.0 0.00 0.00 0.00 60 869.1
20260506165705 56 146 12.0 21.0 0.00 0.00 0.00 60 869.1
20260506165505 56 159 10.0 15.0 0.00 0.00 0.00 60 869.1
20260506165305 55 154 10.0 18.0 0.00 0.00 0.00 60 869.0
20260506165104 56 151 15.0 20.0 0.00 0.00 0.00 60 869.0
20260506164903 56 153 15.0 22.0 0.00 0.00 0.00 60 869.0
20260506164701 56 159 15.0 22.0 0.00 0.00 0.00 60 869.0
20260506164502 56 162 15.0 22.0 0.00 0.00 0.00 60 869.0
20260506164301 56 158 15.0 20.0 0.00 0.00 0.00 60 869.0
20260506164102 56 158 16.0 22.0 0.00 0.00 0.00 60 868.9
20260506163901 56 153 14.0 25.0 0.00 0.00 0.00 60 868.9
20260506163701 56 159 15.0 28.0 0.00 0.00 0.00 60 868.9
20260506163501 56 158 15.0 28.0 0.00 0.00 0.00 60 869.0
20260506163301 56 150 13.0 21.0 0.00 0.00 0.00 60 869.1
20260506163101 56 151 12.0 17.0 0.00 0.00 0.00 60 869.1
20260506162901 56 149 10.0 17.0 0.00 0.00 0.00 60 869.1
20260506162659 56 165 12.0 20.0 0.00 0.00 0.00 60 869.1
20260506162523 56 169 11.0 14.0 0.00 0.00 0.00 60 869.3
20260506162459 56 173 16.0 26.0 0.00 0.00 0.00 60 869.1
20260506162259 56 177 16.0 26.0 0.00 0.00 0.00 60 869.2
20260506162059 56 173 12.0 19.0 0.00 0.00 0.00 60 869.3
20260506161859 56 169 11.0 14.0 0.00 0.00 0.00 60 869.3
20260506161659 56 166 12.0 20.0 0.00 0.00 0.00 60 869.3
20260506161459 57 161 12.0 20.0 0.00 0.00 0.00 60 869.3
20260506161259 57 173 10.0 16.0 0.00 0.00 0.00 59 869.3
20260506161059 57 172 12.0 19.0 0.00 0.00 0.00 59 869.4
20260506160859 57 168 14.0 21.0 0.00 0.00 0.00 59 869.4
20260506160657 57 165 10.0 21.0 0.00 0.00 0.00 59 869.4
20260506160457 57 160 11.0 18.0 0.00 0.00 0.00 59 869.4
20260506160257 58 165 12.0 18.0 0.00 0.00 0.00 59 869.3
20260506160057 58 169 14.0 21.0 0.00 0.00 0.00 59 869.3
20260506155857 58 161 12.0 18.0 0.00 0.00 0.00 59 869.4
20260506155657 58 168 13.0 23.0 0.00 0.00 0.00 59 869.4
20260506155457 59 164 14.0 21.0 0.00 0.00 0.00 59 869.4
20260506155257 59 164 14.0 21.0 0.00 0.00 0.00 59 869.4
20260506155057 59 168 14.0 19.0 0.00 0.00 0.00 59 869.4
20260506154858 59 166 16.0 21.0 0.00 0.00 0.00 59 869.4
20260506154656 60 155 14.0 20.0 0.00 0.00 0.00 59 869.4
20260506154454 60 155 10.0 20.0 0.00 0.00 0.00 59 869.5
20260506154254 60 166 10.0 14.0 0.00 0.00 0.00 59 869.5
20260506154054 60 172 8.0 13.0 0.00 0.00 0.00 59 869.5
20260506153854 59 175 9.0 15.0 0.00 0.00 0.00 59 869.5
20260506153654 59 171 8.0 15.0 0.00 0.00 0.00 59 869.5
20260506153453 58 166 8.0 14.0 0.00 0.00 0.00 60 869.6
20260506153253 58 169 9.0 12.0 0.00 0.00 0.00 60 869.6
20260506153053 58 172 10.0 15.0 0.00 0.00 0.00 60 869.6
20260506152853 58 180 11.0 15.0 0.00 0.00 0.00 60 869.6
20260506152651 58 178 9.0 15.0 0.00 0.00 0.00 60 869.6
20260506152451 58 177 10.0 15.0 0.00 0.00 0.00 60 869.6
20260506152251 58 175 10.0 15.0 0.00 0.00 0.00 60 869.7
20260506152051 58 167 8.0 12.0 0.00 0.00 0.00 60 869.8
20260506151851 58 175 8.0 13.0 0.00 0.00 0.00 59 869.8
20260506151651 58 173 9.0 13.0 0.00 0.00 0.00 59 869.8
20260506151451 58 172 11.0 16.0 0.00 0.00 0.00 59 869.8
20260506151250 58 174 9.0 13.0 0.00 0.00 0.00 59 869.8
20260506151050 58 177 10.0 16.0 0.00 0.00 0.00 59 869.8
20260506150850 58 166 9.0 16.0 0.00 0.00 0.00 59 869.8
20260506150649 58 166 7.0 12.0 0.00 0.00 0.00 59 869.8
20260506150449 58 171 9.0 15.0 0.00 0.00 0.00 59 869.8
20260506150249 58 167 13.0 20.0 0.00 0.00 0.00 59 869.8
20260506150049 58 172 15.0 23.0 0.00 0.00 0.00 59 869.8
20260506145849 58 171 16.0 25.0 0.00 0.00 0.00 59 869.7
20260506145649 58 173 15.0 25.0 0.00 0.00 0.00 59 869.8
20260506145449 58 171 13.0 25.0 0.00 0.00 0.00 59 869.8
20260506145248 58 178 13.0 19.0 0.00 0.00 0.00 59 869.9
20260506145048 58 174 12.0 18.0 0.00 0.00 0.00 59 869.9
20260506144848 58 175 11.0 17.0 0.00 0.00 0.00 59 869.9
20260506144646 58 176 10.0 15.0 0.00 0.00 0.00 59 870.0
20260506144446 58 178 9.0 13.0 0.00 0.00 0.00 59 869.9
20260506144247 58 172 11.0 18.0 0.00 0.00 0.00 59 870.0
20260506144046 58 170 10.0 14.0 0.00 0.00 0.00 59 869.9
20260506143846 58 172 12.0 19.0 0.00 0.00 0.00 59 869.9
20260506143635 58 179 12.0 19.0 0.00 0.00 0.00 58 869.9
20260506143435 59 177 12.0 17.0 0.00 0.00 0.00 58 869.9
20260506143235 59 177 11.0 17.0 0.00 0.00 0.00 58 869.9
20260506143035 59 176 12.0 21.0 0.00 0.00 0.00 58 870.0
20260506142835 59 193 11.0 21.0 0.00 0.00 0.00 58 870.0
20260506142633 60 178 10.0 18.0 0.00 0.00 0.00 58 870.0
20260506142433 60 168 5.0 18.0 0.00 0.00 0.00 58 870.1
20260506142233 60 168 5.0 8.0 0.00 0.00 0.00 58 870.1
20260506142033 59 169 7.0 10.0 0.00 0.00 0.00 58 870.0
20260506141833 59 200 6.0 10.0 0.00 0.00 0.00 58 870.0
20260506141633 59 203 7.0 14.0 0.00 0.00 0.00 58 870.0
20260506141433 59 172 7.0 14.0 0.00 0.00 0.00 58 870.0
20260506141233 59 165 10.0 14.0 0.00 0.00 0.00 58 870.0
20260506141033 59 184 9.0 14.0 0.00 0.00 0.00 58 870.0
20260506140833 59 195 6.0 12.0 0.00 0.00 0.00 58 870.0
20260506140631 60 191 6.0 9.0 0.00 0.00 0.00 58 870.0
20260506140431 60 180 7.0 11.0 0.00 0.00 0.00 58 870.0
20260506140232 61 172 6.0 11.0 0.00 0.00 0.00 58 870.0
20260506140031 61 175 7.0 12.0 0.00 0.00 0.00 57 870.0
20260506135831 61 169 9.0 15.0 0.00 0.00 0.00 57 870.0
20260506135631 61 182 12.0 20.0 0.00 0.00 0.00 57 869.9
20260506135431 61 178 12.0 20.0 0.00 0.00 0.00 57 869.9
20260506135231 61 175 12.0 19.0 0.00 0.00 0.00 57 870.0
20260506135031 60 169 12.0 16.0 0.00 0.00 0.00 57 870.0
20260506134831 60 161 10.0 16.0 0.00 0.00 0.00 57 870.0
20260506134711 60 161 8.0 13.0 0.00 0.00 0.00 58 870.0
20260506134629 60 161 8.0 13.0 0.00 0.00 0.00 58 870.0
20260506134429 60 189 8.0 12.0 0.00 0.00 0.00 58 870.0
20260506134229 61 181 9.0 13.0 0.00 0.00 0.00 57 870.0
20260506134029 61 185 5.0 11.0 0.00 0.00 0.00 57 870.0
20260506133829 61 194 8.0 16.0 0.00 0.00 0.00 57 870.0
20260506133629 61 186 7.0 12.0 0.00 0.00 0.00 57 870.1
20260506133429 61 190 10.0 22.0 0.00 0.00 0.00 57 870.0
20260506133229 61 197 11.0 22.0 0.00 0.00 0.00 57 870.0
20260506133029 61 205 11.0 18.0 0.00 0.00 0.00 57 870.0
20260506132827 61 210 10.0 18.0 0.00 0.00 0.00 57 870.0
20260506132625 61 162 7.0 17.0 0.00 0.00 0.00 58 870.0
20260506132425 61 172 6.0 13.0 0.00 0.00 0.00 57 870.0
20260506132225 61 196 10.0 17.0 0.00 0.00 0.00 57 870.0
20260506132025 61 211 8.0 16.0 0.00 0.00 0.00 57 870.0
20260506131825 61 196 7.0 13.0 0.00 0.00 0.00 57 870.0
20260506131625 61 182 7.0 13.0 0.00 0.00 0.00 57 870.0
20260506131425 61 199 6.0 10.0 0.00 0.00 0.00 58 870.0
20260506131225 61 211 6.0 13.0 0.00 0.00 0.00 57 870.0
20260506131025 61 207 9.0 17.0 0.00 0.00 0.00 58 869.9
20260506130825 61 184 8.0 18.0 0.00 0.00 0.00 58 869.9
20260506130623 61 157 6.0 14.0 0.00 0.00 0.00 58 869.9
20260506130423 61 180 7.0 12.0 0.00 0.00 0.00 58 870.0
20260506130223 61 196 7.0 12.0 0.00 0.00 0.00 58 870.0
20260506130023 61 163 7.0 12.0 0.00 0.00 0.00 58 870.0
20260506125823 60 138 7.0 11.0 0.00 0.00 0.00 58 870.0
20260506125621 60 168 5.0 10.0 0.00 0.00 0.00 58 870.1
20260506125421 60 173 9.0 14.0 0.00 0.00 0.00 58 870.1
20260506125221 60 166 14.0 23.0 0.00 0.00 0.00 58 870.1
20260506125021 61 166 14.0 23.0 0.00 0.00 0.00 58 870.1
20260506124821 61 174 13.0 18.0 0.00 0.00 0.00 58 870.1
20260506124619 61 177 14.0 18.0 0.00 0.00 0.00 58 870.1
20260506124419 61 178 14.0 20.0 0.00 0.00 0.00 58 870.1
20260506124220 61 176 11.0 20.0 0.00 0.00 0.00 58 870.2
20260506124019 61 181 6.0 13.0 0.00 0.00 0.00 58 870.2
20260506123819 60 205 5.0 11.0 0.00 0.00 0.00 58 870.2
20260506123619 60 184 7.0 11.0 0.00 0.00 0.00 59 870.2
20260506123419 60 175 8.0 12.0 0.00 0.00 0.00 59 870.2
20260506123219 59 188 9.0 16.0 0.00 0.00 0.00 59 870.2
20260506123019 59 196 10.0 19.0 0.00 0.00 0.00 59 870.2
20260506122819 59 189 10.0 19.0 0.00 0.00 0.00 59 870.2
20260506122617 59 190 11.0 16.0 0.00 0.00 0.00 59 870.2
20260506122417 60 184 12.0 18.0 0.00 0.00 0.00 58 870.2
20260506122218 60 188 11.0 14.0 0.00 0.00 0.00 58 870.2
20260506122015 60 190 10.0 18.0 0.00 0.00 0.00 58 870.2
20260506121815 61 188 12.0 18.0 0.00 0.00 0.00 58 870.2
20260506121615 61 191 10.0 16.0 0.00 0.00 0.00 58 870.2
20260506121415 61 197 10.0 16.0 0.00 0.00 0.00 58 870.2
20260506121215 61 206 10.0 16.0 0.00 0.00 0.00 58 870.2
20260506121015 61 199 8.0 14.0 0.00 0.00 0.00 59 870.2
20260506120815 60 166 6.0 11.0 0.00 0.00 0.00 59 870.2
20260506120603 60 153 4.0 9.0 0.00 0.00 0.00 59 870.2
20260506120403 60 181 6.0 9.0 0.00 0.00 0.00 59 870.2
20260506120203 60 198 7.0 14.0 0.00 0.00 0.00 59 870.1
20260506120003 60 180 10.0 19.0 0.00 0.00 0.00 59 870.2
20260506115803 60 200 9.0 19.0 0.00 0.00 0.00 59 870.2
20260506115603 60 202 5.0 8.0 0.00 0.00 0.00 59 870.2
20260506115403 60 253 5.0 8.0 0.00 0.00 0.00 59 870.1
20260506115203 60 205 9.0 17.0 0.00 0.00 0.00 59 870.1
20260506115003 60 214 7.0 14.0 0.00 0.00 0.00 59 870.1
20260506114803 59 202 8.0 14.0 0.00 0.00 0.00 59 870.1
20260506114601 59 232 6.0 14.0 0.00 0.00 0.00 59 870.1
20260506114401 59 208 8.0 14.0 0.00 0.00 0.00 59 870.1
20260506114201 59 194 8.0 14.0 0.00 0.00 0.00 59 870.2
20260506114001 59 191 8.0 13.0 0.00 0.00 0.00 59 870.2
20260506113801 59 178 10.0 16.0 0.00 0.00 0.00 59 870.2
20260506113601 59 200 9.0 16.0 0.00 0.00 0.00 60 870.2
20260506113401 59 193 11.0 15.0 0.00 0.00 0.00 60 870.1
20260506113201 59 193 10.0 14.0 0.00 0.00 0.00 60 870.1
20260506113001 59 204 10.0 16.0 0.00 0.00 0.00 60 870.1
20260506112801 59 213 9.0 16.0 0.00 0.00 0.00 60 870.1
20260506112631 59 219 11.0 17.0 0.00 0.00 0.00 60 870.1
20260506112559 59 219 11.0 17.0 0.00 0.00 0.00 60 870.1
20260506112359 59 187 12.0 20.0 0.00 0.00 0.00 60 870.1
20260506112232 59 210 9.0 20.0 0.00 0.00 0.00 60 870.2
20260506112159 59 210 9.0 20.0 0.00 0.00 0.00 60 870.2
20260506111959 59 226 8.0 11.0 0.00 0.00 0.00 60 870.2
20260506111759 59 214 7.0 12.0 0.00 0.00 0.00 60 870.2
20260506111559 59 212 10.0 15.0 0.00 0.00 0.00 60 870.2
20260506111359 59 183 8.0 14.0 0.00 0.00 0.00 60 870.2
20260506111157 59 202 6.0 15.0 0.00 0.00 0.00 60 870.2
20260506110957 59 195 10.0 16.0 0.00 0.00 0.00 60 870.1
20260506110757 59 178 13.0 18.0 0.00 0.00 0.00 60 870.1
20260506110630 59 185 11.0 22.0 0.00 0.00 0.00 61 870.1
20260506110556 59 185 11.0 22.0 0.00 0.00 0.00 61 870.1
20260506110355 58 191 9.0 16.0 0.00 0.00 0.00 61 870.0
20260506110155 58 198 8.0 16.0 0.00 0.00 0.00 61 870.1
20260506105955 58 196 8.0 14.0 0.00 0.00 0.00 61 870.1
20260506105826 58 190 9.0 15.0 0.00 0.00 0.00 61 870.1
20260506105755 58 190 9.0 15.0 0.00 0.00 0.00 61 870.1
20260506105555 59 194 9.0 14.0 0.00 0.00 0.00 61 870.1